Wind_Speed
78 80 86 93 98 102 104 104 104 100 95 93 87 80 77 74 71 69 64 54 39 29 27 33 38 37 46 58 71 78 81 84 88 95 97 101 105 113 117 123 124 121 116 114 113 110 105
79 80 87 95 100 105 107 106 106 104 98 97 89 83 79 77 74 72 68 55 43 35 26 24 30 34 42 56 69 77 81 80 85 92 96 99 104 111 118 125 125 122 123 121 116 108 110
79 82 86 95 100 106 109 109 109 106 103 99 93 86 81 79 76 75 70 59 52 46 34 21 21 28 41 55 64 77 82 85 87 91 95 99 104 109 115 126 128 125 127 123 119 112 110
79 83 88 94 97 104 110 110 110 109 106 102 98 89 84 82 79 77 72 63 58 51 37 22 14 23 34 48 63 78 80 84 85 88 94 101 103 108 112 120 128 127 126 125 120 115 112
78 84 90 93 98 102 108 111 112 112 111 106 103 93 87 85 82 79 75 66 59 47 34 21 6 14 31 43 59 71 80 87 91 88 94 99 100 103 109 115 123 128 126 124 123 117 116
78 84 90 95 96 100 106 110 112 114 114 110 108 97 90 88 85 81 77 70 61 45 32 20 4 10 24 40 52 62 75 85 85 86 92 96 98 101 106 112 116 124 125 126 124 120 120
78 82 87 93 97 98 102 108 112 115 113 113 108 101 93 90 89 84 79 72 62 43 33 23 12 8 20 36 45 60 74 81 84 87 87 87 91 95 101 110 117 125 133 131 129 125 122
76 81 86 90 94 99 103 106 111 112 113 111 108 104 94 90 88 86 82 75 64 49 34 25 17 7 17 28 37 51 70 81 86 90 83 82 88 92 99 106 113 120 131 131 129 127 124
75 80 85 89 93 97 103 105 108 111 112 111 107 106 97 90 88 84 80 77 69 56 42 30 19 10 10 23 31 48 65 78 83 82 71 76 83 88 92 99 106 113 121 133 131 127 124
74 78 84 88 93 95 101 100 106 108 109 109 107 105 98 91 86 82 78 73 68 60 49 32 25 13 6 16 26 35 51 67 76 75 75 70 74 80 86 92 96 105 113 126 133 130 126
72 77 83 85 91 94 98 101 101 104 108 107 107 102 98 92 86 84 79 72 67 63 52 36 28 22 9 12 17 26 29 65 72 68 64 67 67 70 76 81 86 93 101 111 127 132 128
71 77 80 84 91 94 92 100 100 102 105 104 103 102 97 90 85 81 77 72 68 64 53 44 27 26 18 9 21 30 37 46 57 63 69 70 68 65 65 68 73 79 90 102 111 122 131
72 76 80 83 86 90 89 92 100 99 103 104 99 97 94 88 82 79 75 68 65 59 54 45 33 22 24 15 9 24 38 50 57 59 64 63 59 57 58 59 62 70 83 91 99 108 114
73 76 80 81 86 87 88 94 97 96 99 104 97 95 91 85 78 73 71 65 58 54 50 44 34 23 19 21 10 10 23 35 39 45 50 52 55 56 57 57 58 62 70 81 88 96 105
71 76 79 81 84 86 83 92 92 97 100 100 98 92 87 82 77 69 66 62 55 51 46 41 31 23 15 14 19 15 10 21 25 30 34 39 41 45 49 52 55 58 62 71 78 84 94
71 77 79 81 84 84 85 87 91 97 100 102 96 90 88 80 75 68 61 58 53 47 44 40 35 25 17 12 14 20 20 22 22 19 25 28 33 38 40 43 47 52 58 63 69 75 80
70 76 78 81 81 82 81 86 90 95 98 101 97 91 88 79 71 66 58 54 49 45 41 37 34 29 21 13 9 9 14 14 16 19 22 20 20 27 34 39 44 47 52 59 62 67 72
72 74 77 79 80 80 83 83 92 96 95 102 94 90 87 79 72 65 57 49 47 42 37 34 31 27 22 16 9 5 6 8 13 17 19 21 25 26 30 35 39 43 48 52 55 62 66
75 75 76 78 78 77 82 82 90 93 99 101 97 88 84 77 71 62 56 47 42 39 35 31 27 25 21 17 12 5 1 6 9 12 15 19 22 24 28 33 36 40 45 51 54 59 63
76 76 76 76 75 78 82 86 86 91 96 99 100 89 82 77 69 62 57 46 39 36 33 29 26 22 20 18 14 11 5 2 6 10 14 17 20 22 26 30 33 35 40 44 49 54 59
75 76 76 74 77 80 85 89 89 90 97 96 95 91 84 78 68 60 56 49 37 35 31 26 23 21 19 16 16 13 11 7 5 5 10 13 15 21 24 27 30 33 36 41 46 51 54
76 77 76 76 77 82 84 85 90 92 95 96 90 90 83 77 69 60 54 49 39 32 30 27 23 19 17 15 11 11 12 12 10 10 9 10 14 16 20 23 27 33 39 43 46 50 53
76 78 79 79 82 84 85 86 91 91 94 95 91 91 79 79 68 62 51 47 41 30 27 25 22 19 18 16 15 12 13 13 14 13 14 13 14 15 19 22 25 31 33 37 41 46 50
78 79 80 81 82 85 87 88 90 89 89 90 96 97 82 77 65 59 51 44 40 33 26 24 21 20 17 16 17 16 15 14 14 15 14 14 16 17 17 18 24 30 29 33 36 40 43
78 82 83 85 86 88 88 89 87 93 93 93 94 100 87 80 72 60 44 41 37 34 27 24 22 19 18 17 18 18 18 16 16 16 17 16 17 19 20 21 23 22 25 31 34 37 39
81 84 85 86 88 89 91 89 89 89 92 88 103 93 85 79 73 62 44 38 36 31 29 26 22 20 19 18 17 17 18 18 17 17 18 19 18 19 20 21 24 23 24 26 31 32 35
85 86 88 89 91 93 93 93 90 91 90 89 100 93 84 78 76 61 44 37 35 31 28 26 24 21 21 20 20 17 17 18 18 17 18 20 20 19 20 20 20 21 26 28 29 31 33
89 88 91 93 95 97 95 93 93 88 91 100 107 91 85 78 75 53 39 35 33 30 28 25 23 21 21 21 20 19 19 19 19 17 18 20 22 21 22 21 18 18 23 28 29 29 30
93 93 93 95 98 100 97 95 96 90 93 102 106 94 80 75 73 54 40 34 31 30 28 25 23 21 22 21 21 21 20 20 20 19 19 20 21 22 24 26 22 21 20 22 28 31 32
Wind_Direction
342 345 345 344 342 341 343 345 346 351 353 352 350 349 349 348 347 345 343 335 325 308 287 270 260 241 227 212 214 214 214 212 210 210 209 211 209 209 208 208 212 211 213 215 214 214 217
341 345 347 344 343 342 343 345 345 350 354 353 352 352 353 352 352 351 349 345 342 336 317 284 257 239 218 208 211 211 213 212 211 209 209 211 209 208 208 209 211 213 213 215 214 215 218
340 344 346 347 344 343 343 345 346 350 354 354 354 355 356 356 358 356 353 352 350 346 337 311 260 231 215 207 204 208 208 210 209 207 208 209 210 208 209 208 209 212 215 214 214 214 220
340 345 346 348 345 343 342 344 346 350 354 356 354 356 358 360 2 1 359 359 355 348 342 326 272 227 210 207 205 207 205 209 210 207 208 209 210 209 209 208 209 212 216 216 215 214 218
342 345 347 349 346 346 342 343 345 349 351 356 355 356 359 2 4 5 4 4 0 351 348 341 282 213 206 201 204 206 202 206 209 207 208 209 210 210 210 209 209 210 217 217 217 216 219
343 346 347 349 348 348 344 344 346 347 350 355 356 356 359 3 5 8 9 8 5 360 360 3 357 191 197 196 203 204 202 205 210 211 210 209 209 210 210 210 210 208 214 219 219 218 219
343 345 347 348 349 348 347 345 346 347 350 354 356 357 359 3 5 9 11 13 9 7 13 22 31 148 184 197 199 198 201 204 209 213 213 210 211 211 210 211 211 209 212 219 220 221 221
343 344 348 347 349 350 352 347 346 348 350 354 356 357 359 3 5 8 10 14 14 14 20 26 38 92 170 188 196 197 200 202 208 214 213 211 211 212 213 213 211 211 210 219 223 222 222
341 344 346 347 348 351 353 349 348 348 350 353 356 356 358 1 4 7 10 12 14 19 20 25 36 61 164 180 191 194 200 203 209 217 218 215 214 213 215 215 214 213 213 214 222 225 224
339 343 344 347 348 352 353 353 349 350 352 353 355 356 357 358 2 5 10 14 13 22 19 29 35 51 100 170 190 195 201 206 213 217 219 219 217 216 216 217 217 215 215 216 220 224 227
338 341 343 346 347 352 356 355 350 352 353 354 354 355 356 358 0 1 7 11 13 21 20 23 42 46 67 137 172 189 202 203 212 219 224 224 223 221 220 221 220 219 218 219 219 222 227
336 339 342 344 345 350 353 357 356 352 353 355 355 355 355 357 358 359 4 8 11 19 19 23 36 56 56 106 155 172 193 205 211 218 222 225 227 225 222 223 223 221 222 223 222 223 226
334 338 339 343 346 349 350 355 358 355 354 354 354 354 353 355 356 358 0 6 8 13 18 22 27 48 66 60 149 177 187 195 208 214 221 229 232 231 229 225 223 221 222 225 225 225 226
332 336 336 340 343 347 350 355 358 358 355 353 354 353 353 352 354 355 356 1 7 9 16 18 24 34 78 81 95 178 195 204 209 217 225 228 232 235 235 231 226 223 223 224 226 225 224
330 333 334 339 341 343 350 354 359 360 358 355 353 351 352 351 351 353 354 356 2 5 12 18 24 33 54 92 109 105 126 219 221 224 224 229 233 234 234 233 230 227 224 225 227 227 226
329 330 333 336 339 344 349 355 360 359 356 355 351 351 350 350 349 351 352 353 357 2 5 11 18 24 35 59 118 138 143 151 164 193 216 223 226 227 229 229 229 228 227 228 228 227 228
325 328 332 334 337 344 351 357 359 359 358 355 350 348 348 349 347 347 350 350 353 356 360 6 11 15 20 36 68 114 150 157 168 172 181 195 206 219 219 218 220 221 224 226 228 226 227
321 326 329 332 336 343 349 356 360 357 358 355 351 347 346 348 346 345 345 346 348 352 355 357 3 12 15 17 25 64 122 168 181 190 190 195 201 207 213 218 220 221 222 225 225 225 225
318 323 327 331 334 340 345 351 357 358 358 356 351 347 344 346 346 344 342 343 343 345 348 353 354 360 6 10 12 15 214 188 183 199 206 205 208 208 210 214 219 222 222 223 222 222 222
315 321 326 330 334 339 343 348 354 358 356 354 351 347 343 342 344 343 340 339 339 341 342 344 347 349 350 357 1 357 353 267 206 205 205 211 216 216 218 219 216 220 222 223 224 224 224
313 318 323 330 334 338 343 346 352 357 355 354 348 346 341 338 340 341 340 334 335 334 337 336 337 337 338 340 343 340 336 330 304 257 230 221 222 224 222 221 220 220 222 221 222 223 224
311 317 322 329 331 336 339 345 349 354 355 353 348 342 339 335 335 339 339 332 330 330 330 331 329 327 322 317 320 315 311 313 308 293 273 242 225 225 226 226 227 227 225 222 224 222 223
309 315 320 326 329 334 337 346 348 351 351 351 348 341 339 334 333 332 336 330 324 322 321 322 321 319 317 306 305 304 297 299 297 295 290 275 258 241 234 226 227 230 231 233 233 231 231
309 314 320 324 328 330 337 340 346 348 351 348 347 344 337 331 331 328 331 328 323 317 314 314 315 311 307 304 298 293 286 285 285 285 285 282 273 270 257 243 238 238 234 234 235 236 234
310 316 320 322 327 330 334 337 343 346 349 350 346 341 333 328 327 322 329 325 319 313 307 303 307 305 299 294 287 286 282 280 277 275 276 280 272 267 264 261 254 243 235 234 235 235 235
311 315 317 321 325 328 330 335 342 345 347 350 349 336 331 326 326 322 324 320 315 310 300 297 295 297 291 285 280 276 274 272 268 262 262 266 269 270 273 264 259 253 242 240 237 235 236
309 313 317 319 323 324 328 333 339 341 348 354 348 337 326 323 321 323 323 320 309 304 296 288 290 289 290 284 281 276 270 269 268 263 256 253 257 257 265 270 267 259 245 241 240 237 236
308 311 314 317 319 321 326 331 336 340 346 351 347 337 325 321 319 321 318 312 306 299 292 287 279 279 278 276 275 274 272 267 268 266 261 257 256 258 259 265 268 270 255 245 243 242 238
306 310 312 313 316 318 324 329 334 335 344 345 350 341 326 320 315 314 314 309 305 297 289 280 275 275 275 275 271 270 270 270 270 266 260 257 257 256 254 256 261 266 264 255 249 246 244
Height
10752 10741 10726 10709 10691 10670 10654 10638 10620 10606 10591 10571 10552 10530 10507 10487 10467 10446 10427 10409 10395 10385 10378 10372 10371 10377 10385 10398 10405 10421 10437 10450 10467 10480 10501 10515 10535 10556 10578 10594 10605 10631 10643 10654 10664 10682 10692
10747 10735 10722 10703 10685 10665 10645 10629 10609 10594 10579 10562 10542 10521 10497 10476 10455 10434 10414 10394 10380 10370 10363 10358 10357 10362 10370 10379 10393 10410 10426 10445 10459 10473 10489 10505 10521 10537 10556 10576 10593 10613 10621 10632 10649 10675 10679
10742 10730 10716 10700 10679 10658 10638 10620 10601 10584 10567 10550 10533 10512 10490 10468 10448 10425 10405 10385 10369 10358 10350 10346 10345 10348 10355 10366 10381 10390 10408 10427 10441 10459 10476 10491 10504 10525 10543 10559 10577 10593 10602 10621 10636 10659 10667
10738 10725 10710 10697 10677 10655 10632 10613 10595 10575 10558 10541 10524 10505 10484 10463 10443 10422 10400 10380 10363 10350 10341 10337 10336 10339 10348 10358 10368 10376 10401 10419 10435 10449 10462 10473 10491 10512 10529 10551 10567 10584 10593 10611 10632 10649 10656
10735 10722 10706 10691 10672 10654 10627 10606 10588 10569 10552 10535 10518 10500 10478 10458 10439 10419 10398 10378 10362 10349 10338 10332 10332 10335 10341 10352 10358 10371 10393 10411 10420 10439 10449 10464 10486 10505 10521 10540 10559 10575 10586 10606 10617 10637 10641
10732 10719 10702 10687 10669 10648 10626 10604 10584 10564 10547 10529 10512 10495 10474 10455 10438 10419 10400 10380 10364 10352 10341 10335 10332 10335 10341 10351 10359 10375 10390 10404 10419 10431 10440 10458 10475 10495 10515 10534 10557 10582 10584 10591 10604 10620 10629
10729 10716 10700 10684 10666 10644 10628 10602 10581 10564 10542 10527 10509 10492 10474 10454 10436 10421 10404 10388 10372 10360 10349 10341 10338 10338 10344 10349 10358 10376 10389 10405 10416 10422 10436 10460 10477 10494 10505 10518 10538 10551 10560 10569 10584 10601 10614
10725 10712 10698 10681 10665 10643 10624 10603 10580 10562 10539 10524 10507 10491 10475 10456 10440 10423 10407 10393 10380 10367 10356 10350 10346 10345 10348 10354 10363 10375 10389 10402 10409 10412 10432 10454 10469 10482 10493 10506 10523 10543 10559 10566 10573 10590 10607
10722 10708 10695 10680 10662 10642 10622 10605 10580 10559 10543 10523 10508 10490 10475 10461 10445 10430 10415 10399 10387 10374 10365 10360 10355 10354 10356 10359 10368 10376 10387 10400 10409 10415 10434 10447 10461 10475 10489 10501 10520 10536 10550 10558 10564 10578 10596
10718 10706 10691 10678 10660 10642 10622 10603 10582 10561 10542 10524 10508 10491 10477 10464 10451 10438 10425 10411 10399 10385 10376 10370 10362 10362 10364 10367 10372 10379 10393 10405 10410 10417 10429 10444 10459 10472 10483 10494 10511 10528 10540 10550 10559 10567 10580
10715 10703 10689 10677 10660 10645 10624 10603 10582 10563 10544 10526 10510 10494 10480 10464 10452 10442 10427 10417 10409 10394 10389 10381 10373 10371 10372 10375 10382 10390 10400 10405 10410 10419 10435 10445 10456 10468 10480 10490 10505 10522 10536 10544 10555 10562 10572
10711 10699 10687 10675 10658 10643 10627 10604 10583 10562 10547 10530 10515 10499 10483 10470 10458 10447 10436 10422 10413 10402 10399 10391 10385 10381 10379 10381 10384 10393 10401 10409 10417 10425 10432 10439 10448 10461 10475 10488 10503 10519 10528 10534 10542 10557 10563
10706 10695 10683 10674 10658 10643 10627 10607 10585 10568 10549 10533 10520 10505 10489 10477 10462 10451 10442 10432 10420 10415 10406 10399 10393 10389 10388 10390 10392 10396 10401 10409 10417 10426 10434 10438 10449 10458 10470 10481 10494 10504 10511 10520 10532 10548 10569
10701 10691 10679 10670 10656 10643 10628 10608 10586 10570 10554 10537 10523 10507 10498 10481 10468 10458 10449 10440 10431 10425 10416 10407 10402 10398 10396 10397 10401 10405 10409 10414 10422 10428 10434 10441 10447 10454 10462 10472 10483 10491 10499 10508 10515 10532 10543
10695 10685 10676 10667 10654 10641 10627 10609 10587 10570 10556 10538 10523 10511 10498 10485 10474 10462 10453 10444 10436 10430 10424 10419 10413 10408 10405 10403 10404 10410 10416 10421 10425 10430 10435 10439 10444 10449 10454 10463 10470 10480 10489 10493 10502 10515 10523
10690 10680 10670 10660 10651 10640 10626 10608 10590 10572 10555 10541 10526 10513 10501 10489 10476 10466 10456 10448 10440 10433 10427 10421 10417 10414 10411 10410 10410 10411 10413 10416 10419 10424 10430 10434 10438 10442 10447 10455 10462 10469 10476 10483 10491 10502 10511
10683 10675 10667 10655 10647 10635 10625 10608 10590 10576 10556 10541 10526 10511 10500 10489 10477 10467 10458 10451 10443 10435 10429 10426 10421 10416 10414 10413 10414 10414 10415 10416 10418 10420 10423 10427 10431 10434 10439 10444 10447 10456 10463 10470 10477 10489 10497
10673 10670 10663 10652 10642 10631 10622 10606 10590 10571 10559 10540 10526 10510 10499 10489 10478 10468 10458 10451 10443 10438 10432 10426 10424 10421 10417 10414 10414 10414 10415 10417 10418 10420 10422 10424 10427 10431 10434 10437 10441 10447 10453 10460 10467 10475 10485
10664 10662 10655 10647 10635 10628 10617 10603 10589 10572 10555 10540 10525 10510 10495 10487 10477 10467 10458 10450 10444 10438 10432 10428 10425 10422 10420 10417 10416 10415 10415 10415 10417 10418 10420 10422 10425 10427 10429 10432 10435 10439 10444 10449 10455 10461 10472
10656 10653 10647 10639 10629 10621 10610 10599 10585 10570 10556 10540 10518 10506 10494 10483 10474 10464 10456 10448 10443 10438 10432 10427 10424 10421 10419 10417 10416 10415 10415 10414 10415 10416 10417 10419 10421 10423 10425 10428 10431 10435 10438 10443 10449 10455 10462
10649 10643 10639 10632 10621 10614 10603 10591 10579 10566 10552 10539 10517 10503 10490 10480 10470 10460 10453 10444 10439 10435 10432 10428 10422 10419 10417 10415 10413 10413 10414 10413 10413 10413 10414 10415 10418 10419 10421 10423 10425 10428 10432 10436 10439 10445 10453
10639 10634 10629 10622 10613 10606 10598 10585 10574 10561 10549 10535 10516 10499 10485 10473 10464 10456 10448 10441 10436 10431 10428 10425 10421 10418 10415 10415 10414 10413 10412 10411 10411 10411 10411 10412 10412 10413 10415 10417 10420 10422 10424 10427 10430 10436 10441
10630 10625 10618 10612 10603 10596 10588 10579 10570 10556 10544 10530 10513 10493 10478 10467 10459 10449 10443 10435 10430 10425 10421 10419 10416 10414 10411 10410 10409 10409 10408 10407 10407 10408 10407 10408 10409 10410 10410 10412 10413 10414 10418 10423 10427 10430 10436
10619 10613 10606 10599 10594 10586 10578 10571 10563 10551 10539 10521 10503 10486 10472 10460 10452 10439 10435 10428 10422 10418 10415 10414 10411 10408 10406 10405 10403 10403 10403 10403 10403 10403 10403 10404 10404 10405 10406 10407 10408 10410 10414 10416 10419 10423 10428
10607 10598 10593 10588 10581 10572 10567 10562 10555 10543 10532 10514 10497 10477 10463 10450 10445 10432 10426 10419 10415 10411 10408 10405 10405 10403 10400 10399 10398 10397 10397 10398 10398 10399 10399 10398 10399 10400 10401 10402 10403 10405 10408 10409 10410 10414 10419
10593 10586 10582 10576 10569 10562 10556 10552 10546 10536 10524 10510 10491 10472 10454 10443 10431 10424 10416 10411 10406 10402 10399 10398 10397 10396 10396 10394 10393 10393 10392 10393 10393 10393 10393 10393 10394 10394 10396 10396 10396 10399 10402 10403 10405 10407 10410
10579 10573 10568 10562 10556 10550 10546 10539 10535 10527 10515 10499 10483 10466 10447 10432 10420 10413 10407 10401 10395 10392 10389 10388 10388 10388 10387 10387 10386 10387 10386 10386 10387 10387 10387 10387 10387 10388 10389 10390 10392 10394 10395 10396 10398 10401 10403
10563 10561 10554 10547 10542 10535 10532 10528 10522 10514 10505 10491 10476 10455 10437 10424 10411 10399 10393 10387 10384 10381 10379 10379 10380 10379 10379 10380 10379 10379 10378 10379 10380 10381 10382 10382 10383 10384 10384 10384 10387 10388 10388 10390 10393 10395 10397
10546 10545 10541 10535 10528 10520 10518 10513 10509 10503 10491 10479 10464 10445 10425 10413 10401 10390 10380 10373 10372 10369 10368 10368 10369 10370 10369 10370 10371 10371 10371 10371 10372 10373 10375 10375 10377 10378 10378 10378 10381 10382 10382 10384 10386 10388 10391